Regional Weather Roundup
Issued by NWS Green Bay, WI

Home | Current Version | Previous Version | Text Only | Print | Product List | Glossary On
Versions: 1 2 3 4 5 6 7 8 9 10 11 12 13 14 15 16 17 18 19 20 21 22 23 24 25 26 27 28 29 30 31 32 33 34 35 36 37 38 39 40 41 42 43 44 45 46 47 48 49 50
000
ASUS43 KGRB 091811
RWRGRB

NORTH-CENTRAL AND NORTHEAST WISCONSIN REGIONAL WEATHER ROUNDUP
NATIONAL WEATHER SERVICE GREEN BAY WI
1200 PM CST TUE FEB 09 2016

WIZ005-009-010>012-018-019-091900-
NORTH CENTRAL WISCONSIN

CITY           SKY/WX    TMP DP  RH WIND       PRES   REMARKS
IRONWOOD       CLOUDY    10   3  72 N14G23    29.92S WCI  -5
MANITOWISH WTR LGT SNOW  10   5  78 N12G22    29.86S VSB 3/4 WCI  -4
ARBOR VITAE    CLOUDY    13   5  71 N18G30    29.84S HAZE    WCI  -4
EAGLE RIVER    LGT SNOW  12   3  66 N20G28    29.81S WCI  -6
LAND O LAKES   LGT SNOW  11   5  76 N20       29.82S VSB 3/4 WCI  -7
RHINELANDER    CLOUDY    13   3  64 N9G25     29.81F WCI   1
PHILLIPS       CLOUDY     9   2  73 N10G22    29.90R WCI  -6
ANTIGO         LGT SNOW  13   6  72 N22       29.79F WCI  -6
TOMAHAWK       CLOUDY    14   4  65 N10G23    29.85S HAZE    WCI   1
MERRILL        CLOUDY    16   5  63 N16G24    29.85R WCI   0
$$

WIZ013-073-091900-
NORTHEAST WISCONSIN

CITY           SKY/WX    TMP DP  RH WIND       PRES   REMARKS
IRON MOUNTAIN  MIX PCPN  14   4  64 NW17G32   29.78S WCI  -3
MARINETTE      CLOUDY    18   7  62 N17G25    29.79S WCI   2
OCONTO         CLOUDY    17   5  58 N15G24    29.81F WCI   2
$$

WIZ017-030-035>037-045-091900-
CENTRAL WISCONSIN

CITY           SKY/WX    TMP DP  RH WIND       PRES   REMARKS
MEDFORD        CLOUDY    11   4  72 N21G26    29.87R HAZE    WCI  -7
WAUSAU         CLOUDY    17   5  59 N15G26    29.83S WCI   2
MOSINEE        CLOUDY    12   9  85 NW18G24   29.85S FOG     WCI  -5
MARSHFIELD     CLOUDY    13   1  59 NW24      29.87S WCI  -7
WISC RAPIDS    CLOUDY    13   2  61 N15G26    29.89F WCI  -3
STEVENS POINT  LGT SNOW  12   4  71 NW12      29.85F WCI  -2
WAUPACA        CLOUDY    20   8  61 NW14      29.84F HAZE    WCI   6
SHAWANO        CLOUDY    19   7  58 N9G17     29.83F WCI   9
CLINTONVILLE   CLOUDY    19   9  63 NW13      29.83F HAZE    WCI   7
WAUTOMA        CLOUDY    15   3  59 NW15G25   29.87F WCI   0
$$

WIZ038-039-048-051-091900-
FOX VALLEY

CITY           SKY/WX    TMP DP  RH WIND       PRES   REMARKS
NWS GREEN BAY  CLOUDY    18   6  59 NW16      29.81F WCI   3
APPLETON       PTSUNNY   18   5  57 NW12G21   29.80F WCI   5
OSHKOSH        CLOUDY    16   8  71 NW14G22   29.82F HAZE    WCI   2
FOND DU LAC    MIX PCPN  16   7  67 NW18      29.83S WCI   0
$$

WIZ022-050-052-091900-
EAST CENTRAL WISCONSIN

CITY           SKY/WX    TMP DP  RH WIND       PRES   REMARKS
EPHRAIM        CLOUDY    18   8  65 NW16G24   29.74F WCI   3
STURGEON BAY   CLOUDY    18   7  62 N20G25    29.79F WCI   1
MANITOWOC      FLURRIES  18   8  65 NW18G26   29.80S WCI   2
SHEBOYGAN      CLOUDY    17   7  64 NW17G24   29.80S WCI   1
$$

LMZ563-521-522-541>543-091900-
LAKESHORE

STATION/POSITION TIME  TEMP    WIND        PRES    VSBY  WAVE
                       AIR SEA DIR/SP/G                  HT/PER
                 (UTC) (F)     (DEG/KT/KT) (MB)    (MI)  (FT/S)
SHEBOYGAN LKSHOR 1800   17     320/ 18/ 22 1010.5F
KEWAUNEE LKSHORE 1700   17     330/ 13/ 20 1008.3R
ALGOMA MARINA    1711          320/ 18/ 24   N/A
CHAMBERS ISLAND  1700   18     310/ 17/ 24 1008.5S
MENOMINEE LKSHOR 1700   17     320/ 20     1008.1R
$$



USA.gov is the U.S. government's official web portal to all federal, state and local government web resources and services.